Location: Newark
(43.0000°N, 1.6781°W)
Time: 23:47:51
(UTC+00:00)

N. Korean satellite - Pass Details

Date: 06 December 2021
Orbit: 447 x 491 km, 97.3° (Epoch: 21 January)

Event Time Altitude Azimuth Distance (km) Brightness Sun altitude
Rises 05:27:18 0° 11° (N) 2,462 10.1 -20.5°
Reaches altitude 10° 05:29:20 10° 10° (N) 1,583 9.1 -20.2°
Maximum altitude 05:32:43 81° 283° (WNW) 458 6.2 -19.6°
Drops below altitude 10° 05:36:05 10° 196° (SSW) 1,570 9.1 -19.0°
Sets 05:38:06 0° 195° (SSW) 2,439 10.1 -18.6°
